Terminal Aerodrome Forecast
Issued by NWS Grand Forks, ND

Home | Current Version | Previous Version | Graphics & Text | Print | Product List | Glossary On
Versions: 1 2 3 4 5 6 7 8 9 10 11 12 13 14 15
000
FTUS43 KFGF 171100
TAFFAR
TAF
KFAR 171120Z 1712/1812 32024G30KT P6SM VCSH OVC015
     FM171900 34019G26KT P6SM OVC025
     FM180000 35011KT P6SM OVC025=

USA.gov is the U.S. government's official web portal to all federal, state and local government web resources and services.